GEFSMA_500_meanwind_000.txt.gz
Wind_Speed
26 28 29 28 28 29 30 30 30 33 36 38 39 40 42 42 45 46 48 49 50 51 52 53 53 52 51 49 47 45 45 47 48 47 46 45 43 42 42 41 38 39 49
30 30 31 30 32 34 33 31 33 36 39 40 39 39 41 44 46 49 49 50 53 56 58 58 58 53 52 52 52 52 52 53 53 53 52 51 50 48 47 46 44 42 41
27 28 29 32 33 33 33 35 38 40 41 41 42 44 45 45 46 49 50 51 53 57 58 60 63 64 62 60 61 59 58 58 59 58 57 55 54 53 52 51 50 49 48
27 29 31 32 33 35 37 38 41 43 44 44 47 50 51 53 52 53 53 55 57 61 62 61 63 66 68 69 65 62 62 62 63 62 60 60 60 59 58 56 54 53 53
29 31 34 35 36 39 41 41 43 46 47 47 49 52 55 57 57 59 59 60 61 64 66 68 69 70 72 70 64 63 64 65 65 65 65 65 65 65 62 60 58 56 56
31 33 35 38 40 41 42 44 47 49 50 51 53 56 58 59 61 64 65 64 65 66 67 72 75 76 76 74 74 71 69 68 68 69 71 72 70 70 68 66 63 61 60
32 35 38 41 43 45 47 49 51 54 55 57 59 59 60 63 63 57 55 54 56 57 59 65 68 73 79 80 81 81 78 74 71 71 73 78 78 76 77 73 68 66 64
35 40 43 45 46 49 51 52 55 58 59 60 60 59 58 54 50 49 50 51 51 53 55 56 54 53 55 62 66 68 72 72 68 63 62 67 78 85 86 79 74 70 67
43 46 48 48 50 52 53 54 57 59 60 57 53 48 42 40 41 43 44 44 45 47 51 54 53 51 50 50 49 50 54 57 61 62 62 64 71 80 87 88 79 76 73
51 52 52 51 51 53 55 57 59 58 54 46 42 40 40 40 40 41 41 42 44 47 50 51 52 51 51 51 49 47 50 55 61 60 59 62 66 71 75 85 85 79 78
58 56 56 56 56 54 55 59 59 52 44 41 41 41 39 40 44 45 46 45 47 52 55 53 50 49 49 49 49 47 47 48 49 54 57 58 56 57 62 73 82 76 73
62 59 58 58 57 55 57 58 53 44 41 43 43 41 40 42 44 48 50 52 53 55 57 58 52 47 46 46 46 45 45 46 46 49 50 47 44 45 53 60 75 76 70
64 59 57 58 57 59 57 51 43 41 44 45 43 43 45 47 49 52 54 56 56 55 55 55 53 48 46 43 40 40 44 45 42 41 43 41 39 35 35 38 55 69 71
59 55 57 57 58 54 46 42 43 44 45 44 45 47 50 52 55 58 60 60 58 56 56 51 47 47 48 43 38 38 40 38 36 35 36 36 35 33 32 31 36 43 48
56 54 55 56 50 42 42 44 44 43 44 46 50 53 55 57 60 62 62 61 60 59 55 48 43 44 48 45 39 37 36 34 35 34 33 32 31 31 30 31 31 35 40
52 50 52 47 43 41 42 42 44 45 48 53 56 58 60 62 63 63 61 59 59 60 56 45 38 40 46 45 41 36 32 33 34 34 33 30 29 30 32 33 33 36 39
49 50 46 43 43 43 43 44 48 52 56 59 61 63 64 64 61 58 57 55 54 54 49 39 32 36 41 39 37 33 27 28 31 31 30 31 32 32 34 35 35 35 38
49 44 41 43 43 44 46 50 54 58 61 63 64 65 63 59 55 53 52 50 48 46 42 34 29 33 33 30 27 21 17 19 23 27 30 32 34 36 35 34 37 39 41
45 42 43 44 46 49 52 54 59 62 64 65 64 62 59 54 49 48 46 43 41 40 38 31 26 28 27 23 18 15 16 18 20 23 25 27 30 31 32 33 35 39 42
42 44 45 46 50 54 57 59 62 64 64 64 62 58 53 48 44 42 39 38 37 36 31 25 23 23 22 19 15 14 15 16 19 20 21 24 26 27 30 35 39 43 46
44 45 48 52 56 58 59 60 61 61 60 57 52 47 44 41 38 36 34 33 31 28 24 21 19 19 18 14 13 13 14 16 18 18 18 20 22 26 31 35 40 44 44
46 49 52 55 57 59 60 59 57 55 54 52 48 44 42 39 35 31 28 27 24 22 20 17 16 14 13 11 10 11 13 16 15 15 16 18 21 24 28 29 32 34 35
49 52 54 57 58 57 56 53 52 52 51 49 43 37 34 31 25 21 22 22 20 17 16 15 13 11 9 7 8 9 12 14 12 12 13 14 17 20 20 20 18 19 24
51 53 55 56 54 52 49 47 46 43 42 39 34 31 26 22 19 19 21 20 17 13 13 13 12 11 8 5 6 9 11 11 10 7 6 7 9 10 14 10 6 9 8
50 52 53 52 49 46 43 40 38 39 42 38 31 26 21 18 19 18 17 15 11 10 12 11 11 9 5 6 6 6 7 6 3 2 3 4 7 10 9 3 1 1 9
49 49 49 48 44 41 38 37 40 42 39 30 23 19 17 16 15 13 10 10 11 12 11 12 12 8 7 8 7 9 9 5 2 5 8 8 10 10 7 8 11 11 19

GEFSMA_500_meanwind_006.txt.gz
Wind_Speed
19 19 20 19 18 19 21 22 24 25 25 26 28 31 33 36 38 39 41 41 43 45 45 46 47 48 49 49 50 51 52 52 51 50 49 48 48 47 44 43 44 44 43
19 19 19 19 19 20 22 25 26 28 30 32 34 36 37 40 42 43 46 48 48 50 52 51 50 51 52 53 53 52 52 52 52 52 52 51 51 50 51 50 48 47 47
19 20 20 19 20 22 25 28 30 33 35 36 38 40 43 45 47 49 51 53 54 55 56 56 56 56 56 57 56 55 54 54 54 55 55 54 54 54 55 55 53 51 50
19 20 20 21 23 25 27 30 33 36 38 40 42 44 47 50 52 53 55 57 58 59 60 62 63 63 62 61 60 59 58 58 58 58 58 59 58 58 59 60 60 57 55
21 22 23 24 25 27 30 33 36 39 40 42 45 48 52 55 57 58 60 61 62 63 65 68 68 67 67 65 63 62 62 62 61 61 60 60 61 62 63 63 64 64 62
27 28 28 29 30 33 37 40 41 42 43 44 48 52 56 60 62 63 63 64 66 67 68 70 70 70 68 65 63 63 61 58 57 57 57 58 60 63 65 67 67 68 68
33 34 34 34 36 39 42 44 46 47 47 48 52 55 58 61 64 65 64 65 68 69 68 65 63 62 60 57 55 54 52 51 50 51 53 55 57 58 61 65 68 69 70
37 38 39 38 40 43 45 47 49 50 52 54 56 58 59 61 64 65 65 66 66 63 58 53 49 48 47 47 47 45 44 45 46 47 49 52 55 55 56 59 64 68 70
42 42 44 46 48 49 50 52 53 53 55 57 59 59 61 62 65 67 67 63 55 49 48 46 44 43 43 44 45 46 46 47 49 50 50 52 54 55 56 56 59 63 68
48 49 50 52 54 54 54 55 55 56 57 59 61 61 62 63 63 61 56 52 48 45 45 44 43 44 45 46 47 48 49 51 53 53 53 53 54 55 56 56 56 57 62
53 52 51 51 52 53 54 56 57 57 59 61 62 62 61 56 52 49 47 46 46 45 44 44 46 48 49 50 51 52 53 55 55 54 53 53 52 52 54 56 55 54 55
49 48 48 48 49 51 53 56 57 57 59 62 63 61 55 50 48 47 46 45 44 44 47 49 51 52 53 55 56 57 57 57 56 54 53 52 51 50 52 54 55 54 53
42 44 48 50 52 53 55 57 57 58 60 62 60 56 53 50 49 48 47 47 48 49 51 55 57 58 59 60 61 61 60 58 57 54 53 51 51 50 49 51 54 55 55
44 47 50 52 53 54 55 56 57 59 60 58 55 53 52 51 51 52 53 54 55 56 58 59 61 62 63 64 64 62 59 57 56 54 52 51 50 49 49 49 52 53 54
47 49 51 53 53 53 55 56 58 59 58 55 54 54 53 53 54 56 59 60 62 62 62 61 61 61 62 61 61 59 56 56 55 54 52 51 50 49 48 48 49 50 51
48 52 53 53 53 54 56 57 58 56 56 55 55 55 56 56 57 59 61 63 64 65 65 59 57 56 56 56 55 54 53 53 53 52 51 50 49 49 47 46 46 46 47
50 51 51 53 54 56 57 56 55 55 56 55 56 56 57 58 59 60 62 63 62 62 61 55 50 47 48 49 48 48 48 47 47 45 43 42 44 46 45 44 43 42 42
49 49 51 54 56 56 56 55 54 55 55 55 55 56 58 59 60 60 60 59 58 56 53 47 44 41 41 42 43 43 43 42 40 37 35 36 40 42 42 42 42 41 41
47 49 51 52 53 53 53 53 53 53 54 55 56 57 58 58 56 54 52 51 49 47 43 40 37 36 37 38 39 39 38 36 33 31 30 32 34 36 38 40 40 40 40
47 48 48 49 50 50 51 51 52 53 54 55 56 56 55 52 47 44 43 41 38 35 33 31 29 30 31 34 35 33 29 26 25 24 24 25 27 30 33 36 37 38 38
45 45 47 48 49 50 51 51 52 53 55 55 53 51 47 44 43 41 38 34 29 25 23 22 23 24 27 28 27 22 19 18 17 16 17 19 22 25 28 30 32 34 36
45 46 48 50 51 51 51 51 52 54 54 51 47 45 43 43 42 39 33 27 22 18 17 18 19 20 21 20 16 14 12 12 11 11 13 16 19 22 24 27 29 31 33
46 47 50 51 52 50 50 52 53 51 48 44 41 40 40 38 35 30 26 22 19 17 16 16 16 16 14 12 10 8 7 7 8 9 11 13 15 19 22 24 26 28 31
48 50 51 50 50 49 50 51 49 46 42 37 35 35 34 31 26 21 19 18 16 15 14 13 11 10 8 6 5 5 5 6 7 8 9 12 15 19 22 24 25 28 32
50 50 49 48 48 48 48 46 43 39 33 32 32 32 29 26 21 16 14 13 11 10 9 7 5 5 4 3 4 5 5 7 7 7 8 12 16 21 23 23 24 25 27
48 47 46 46 46 45 43 40 36 31 29 29 29 28 27 22 16 12 8 6 5 5 5 4 4 4 3 4 5 6 6 6 5 5 8 11 16 19 20 19 18 19 22

GEFSMA_500_meanwind_012.txt.gz
Wind_Speed
17 17 18 19 19 18 17 18 20 20 21 23 24 25 26 28 30 33 33 33 34 35 37 39 42 45 47 48 48 49 49 49 50 50 49 49 49 49 49 49 49 49 48
19 18 19 20 20 20 20 21 22 23 24 25 26 27 29 31 33 35 37 37 39 40 43 45 47 50 52 54 55 56 56 57 56 54 53 51 50 50 50 50 50 51 52
22 22 21 21 23 24 24 26 27 27 28 29 30 32 34 36 37 39 41 42 44 45 47 49 51 54 55 58 59 60 61 62 62 61 58 56 54 53 51 51 52 52 53
24 25 24 24 26 27 28 30 32 33 34 36 38 39 40 42 43 45 46 48 50 52 53 54 56 58 60 61 63 65 66 67 67 65 63 61 60 59 56 55 55 55 54
28 28 28 29 31 32 33 35 36 38 40 41 43 45 47 48 50 52 54 55 57 58 59 60 62 63 65 65 67 68 69 69 69 68 66 66 64 64 62 60 58 57 56
31 32 32 35 37 38 39 41 42 45 46 48 49 50 52 55 57 59 61 62 63 64 64 65 66 67 69 70 71 72 72 72 70 68 68 67 65 64 63 62 61 61 59
34 34 36 38 41 44 45 46 48 50 51 53 55 55 57 59 62 64 65 66 67 67 67 68 68 69 71 72 72 73 73 71 68 65 63 62 61 59 58 58 59 60 60
36 37 39 41 44 47 48 50 52 53 54 55 57 58 58 60 62 64 66 67 68 69 70 70 71 72 72 69 66 65 63 61 58 54 53 52 50 48 47 47 49 51 52
39 40 42 44 47 49 50 51 52 53 54 55 57 58 58 59 60 64 66 68 69 70 71 72 73 72 68 63 59 56 54 52 50 48 45 43 42 41 40 39 39 41 43
42 42 43 45 48 49 49 51 50 51 53 54 56 58 60 61 62 64 65 66 67 68 70 71 69 65 61 59 56 53 52 50 48 46 43 41 40 39 38 38 38 39 41
44 44 45 47 48 48 48 49 51 53 56 58 60 61 63 63 64 64 64 66 68 69 70 68 63 59 57 56 55 53 52 50 48 47 45 43 42 41 41 41 42 43 44
46 47 47 46 46 47 48 50 53 55 57 60 62 63 63 63 64 65 66 68 70 70 69 66 61 58 57 57 55 54 53 51 50 49 49 48 47 47 46 46 47 47 48
47 47 46 45 46 48 50 52 55 57 59 61 62 62 62 63 65 67 70 71 71 70 68 65 62 61 60 59 58 56 55 55 54 54 54 53 53 53 52 52 52 52 51
47 46 47 49 51 52 54 55 58 60 61 61 60 60 62 64 68 70 71 71 70 67 65 63 62 62 62 61 60 59 59 59 59 59 59 59 59 58 58 58 58 57 55
49 50 51 53 54 55 56 58 60 60 60 59 59 61 64 68 70 71 71 71 69 66 64 63 62 60 60 60 60 61 61 62 63 64 63 63 63 63 63 63 62 61 59
53 54 55 55 55 56 57 58 58 57 57 59 61 64 67 68 69 69 69 69 68 67 65 63 62 61 59 58 57 58 59 60 61 62 62 62 63 64 64 64 64 64 62
54 54 54 54 55 56 56 56 55 56 58 60 63 65 66 67 68 68 67 66 66 66 66 63 62 59 55 51 49 50 51 51 52 53 54 55 56 57 59 61 63 63 62
53 53 54 55 56 56 55 54 55 57 59 61 63 65 65 66 65 65 65 64 64 63 61 58 53 49 46 44 42 41 40 40 41 41 43 44 44 46 50 54 57 59 60
54 57 59 59 58 56 54 54 56 58 60 62 63 64 63 63 63 63 62 60 57 54 52 49 44 42 40 39 37 35 33 33 33 34 35 36 38 41 44 47 50 53 55
59 63 65 62 58 53 53 55 57 59 61 62 62 62 62 62 61 59 54 50 47 46 44 42 37 35 33 31 30 29 28 27 28 30 32 33 35 38 39 41 43 45 48
64 64 62 57 52 51 53 56 58 59 60 60 60 61 60 57 54 49 45 43 43 41 39 34 29 26 25 25 25 24 22 23 24 25 27 28 29 30 32 34 35 37 39
60 57 52 49 50 51 54 56 58 58 58 59 58 57 53 48 44 42 40 39 39 35 29 24 21 20 20 20 19 18 16 17 17 19 18 18 19 20 22 23 25 27 30
50 46 46 49 51 52 54 55 56 56 56 56 53 48 44 41 40 37 35 34 32 27 20 16 14 16 15 14 12 11 10 10 10 11 10 10 12 13 14 15 16 18 21
44 45 47 50 52 52 53 53 53 53 52 48 44 39 37 36 35 32 29 26 21 16 12 10 10 9 8 7 6 4 4 4 4 5 4 4 6 7 8 10 12 14 17
44 46 48 50 51 51 51 50 49 46 43 38 35 33 33 32 30 26 20 15 12 9 7 5 4 3 3 2 1 1 1 1 2 2 4 5 6 7 8 10 12 15 18
46 48 48 49 50 49 48 45 41 37 33 30 28 29 29 26 21 16 11 7 4 2 2 3 3 4 5 5 4 4 3 2 3 5 7 9 11 12 12 13 14 16 19

GEFSMA_500_meanwind_018.txt.gz
Wind_Speed
13 13 13 13 14 14 15 15 15 16 17 18 20 22 24 26 27 28 29 30 30 31 32 33 33 34 35 36 37 38 40 42 43 44 45 45 46 46 46 46 46 46 46
16 17 17 17 17 18 18 19 20 21 22 22 24 25 27 29 31 33 35 36 37 37 38 38 39 40 41 42 43 45 47 48 49 50 50 51 51 50 50 49 49 48 48
20 21 22 22 22 23 24 25 26 27 28 29 29 31 32 34 37 39 42 43 44 45 46 47 47 48 49 50 51 52 54 55 55 56 56 57 56 55 53 52 51 50 49
26 27 29 29 30 30 31 32 33 34 35 35 36 37 38 40 42 44 46 47 49 50 52 53 54 54 56 57 58 59 60 61 60 60 60 60 59 58 57 56 55 53 52
31 33 34 35 36 37 38 38 39 40 41 41 42 43 44 45 46 47 48 50 51 52 54 55 56 58 60 61 62 63 64 64 63 62 62 61 61 60 60 59 58 57 56
35 37 38 40 41 42 43 43 44 45 45 46 46 47 47 48 49 49 50 51 52 53 55 56 58 59 61 62 63 64 65 65 64 63 62 61 61 61 61 60 59 58 58
38 40 42 44 45 46 47 47 48 49 49 49 49 49 50 50 50 50 51 52 53 54 56 58 59 61 62 63 64 64 64 64 63 62 62 62 62 61 60 59 58 58 58
41 44 46 47 48 49 49 49 50 50 51 51 51 51 50 50 50 51 51 53 55 57 59 61 63 64 65 65 65 64 63 62 62 62 63 62 61 60 59 58 57 56 56
44 46 47 48 48 48 48 49 49 50 51 52 53 52 51 50 51 53 55 57 59 61 62 64 65 66 66 65 64 63 64 64 64 64 62 61 59 58 57 56 55 54 54
45 45 47 47 48 48 48 47 47 48 49 51 52 53 53 54 55 56 60 62 64 64 65 66 66 65 64 64 65 65 66 66 66 65 62 59 57 56 55 55 54 53 52
44 46 47 48 48 48 48 47 47 48 49 51 54 56 58 59 61 60 60 62 63 64 64 63 62 63 64 66 67 68 68 68 67 64 61 59 57 56 55 54 53 51 49
44 46 47 47 47 48 48 48 49 50 53 56 58 60 62 63 63 61 59 59 59 59 61 62 63 65 67 69 70 70 69 68 66 64 61 59 56 55 54 54 52 49 47
45 46 46 47 48 48 49 50 53 55 57 59 61 62 62 61 61 61 61 61 60 61 62 64 67 69 71 72 72 72 71 69 68 66 64 61 58 56 55 53 52 49 47
46 46 47 48 49 50 52 54 57 59 60 61 61 61 61 62 64 66 66 66 65 63 64 66 70 72 74 74 73 73 72 71 70 68 65 63 60 58 56 54 52 51 49
48 49 50 51 53 55 56 58 60 61 61 62 63 63 63 65 67 68 68 68 67 66 65 68 71 74 75 75 74 74 73 72 71 70 67 65 63 60 57 56 55 53 52
51 52 54 56 58 60 61 62 62 63 63 64 64 65 67 67 68 68 67 68 68 69 68 70 74 76 77 76 74 73 69 67 65 63 62 61 60 59 58 57 57 56 56
55 57 59 60 62 64 64 64 64 64 64 65 66 66 66 66 66 65 65 67 69 72 73 72 74 74 73 69 65 60 56 53 51 50 50 50 51 52 53 54 56 57 58
60 61 62 62 63 63 63 63 63 62 62 63 62 61 61 60 61 63 65 68 71 73 73 72 67 62 58 55 52 49 46 43 40 39 39 41 42 44 46 48 51 54 57
64 64 63 63 63 62 61 61 61 60 59 59 58 57 57 58 61 63 66 68 69 69 67 62 55 50 48 45 43 40 37 34 32 31 33 34 36 37 39 41 43 47 52
65 64 62 62 62 63 62 60 58 56 55 55 55 55 57 59 61 63 65 65 63 58 54 50 45 41 38 37 34 30 27 26 25 25 26 27 28 30 32 34 37 40 45
63 61 61 61 60 60 58 56 54 53 53 53 54 56 58 60 61 62 60 56 51 46 42 38 34 31 29 27 25 22 20 20 20 20 21 22 24 25 27 30 33 36 39
59 58 58 58 57 55 53 52 51 52 53 54 55 56 57 58 57 53 48 44 40 36 31 27 24 22 20 19 18 16 15 16 16 17 16 17 18 19 22 25 28 32 34
56 56 56 55 53 51 50 49 50 52 53 54 54 54 52 50 45 39 35 33 30 26 22 19 17 16 15 14 13 12 12 12 12 12 11 11 11 12 16 19 23 25 28
53 53 51 49 48 47 48 49 50 51 51 51 49 46 41 36 31 28 25 23 21 18 16 14 12 12 11 11 10 9 9 9 9 9 8 8 8 8 10 12 14 17 19
48 47 46 46 46 47 47 47 47 47 45 43 39 34 30 25 23 20 18 16 14 12 11 10 10 9 9 8 8 9 9 9 9 9 8 8 9 9 9 10 11 12 14
44 44 44 44 44 44 43 41 40 38 36 33 29 26 22 20 17 15 12 10 9 9 9 8 9 8 9 9 9 10 11 12 12 12 12 12 12 12 12 11 11 11 13

GEFSMA_500_meanwind_024.txt.gz
Wind_Speed
9 9 10 11 12 13 14 15 17 18 20 21 23 24 25 27 28 29 29 30 31 32 33 34 34 35 36 37 38 38 39 38 38 39 39 39 39 39 39 40 40 40 40
12 13 13 14 15 17 18 19 21 22 23 25 26 27 28 30 31 32 33 34 35 35 36 37 38 39 40 40 41 42 43 43 44 44 45 45 46 46 47 47 47 47 47
17 18 19 20 21 22 22 23 24 26 27 28 29 31 32 33 34 35 36 36 37 38 38 39 40 40 41 42 42 43 44 45 46 47 48 49 50 51 52 52 52 52 52
22 23 25 26 26 27 27 27 28 30 31 32 33 34 35 36 37 38 39 40 40 41 42 42 42 42 43 43 43 44 45 45 47 47 49 50 51 52 53 53 54 54 54
27 28 30 31 31 31 31 31 32 33 34 35 37 38 39 40 41 41 42 43 44 45 46 46 46 45 45 45 46 47 48 49 50 51 52 53 53 54 54 54 54 54 53
33 33 34 34 34 33 32 32 34 34 36 38 39 40 41 42 42 43 44 45 46 47 48 48 49 49 49 49 50 51 53 54 55 56 57 57 57 57 57 56 55 54 53
35 36 35 34 35 33 32 32 33 35 37 38 39 41 42 43 43 44 45 46 47 49 50 51 51 52 53 54 56 57 58 60 61 62 62 61 60 60 59 58 57 56 54
34 34 34 34 33 33 33 34 35 37 38 38 40 41 42 44 45 46 47 48 50 52 53 55 56 58 59 60 61 62 62 62 62 62 62 61 60 60 59 59 58 57 56
31 32 32 33 34 35 37 37 38 39 40 41 42 43 44 45 47 49 50 52 54 57 58 60 61 62 63 64 63 62 62 61 60 60 60 60 60 60 60 60 59 59 59
28 30 31 34 35 37 38 40 41 43 44 45 45 47 48 49 51 53 54 57 59 62 63 64 64 65 65 65 64 64 64 63 64 64 64 64 64 64 64 63 63 63 62
28 30 34 36 37 40 42 44 45 47 48 49 51 52 53 55 56 58 59 61 63 65 66 66 66 66 66 67 67 67 68 68 69 69 69 69 69 69 68 68 67 66 65
30 32 36 39 41 44 46 48 50 51 53 54 56 57 59 61 62 63 64 63 63 64 66 67 68 68 69 69 70 70 71 71 72 73 73 73 73 73 73 72 70 69 67
34 36 39 43 45 48 51 53 55 56 58 59 61 63 64 66 67 67 67 66 64 62 64 66 68 69 70 71 71 72 72 73 74 74 75 75 76 76 75 74 73 71 69
37 40 44 47 49 52 55 57 59 60 62 64 66 68 69 70 70 69 67 67 65 64 64 64 66 69 70 71 71 72 72 73 74 74 75 76 76 76 76 76 75 74 72
41 45 47 51 54 56 59 62 63 65 67 69 70 71 71 70 69 67 66 66 66 64 62 64 66 68 70 70 71 72 73 73 74 74 73 73 73 72 71 71 72 72 71
46 49 52 56 58 61 64 66 67 69 71 71 71 70 69 67 66 66 66 65 66 65 62 63 66 68 70 71 71 71 71 70 67 65 64 62 62 61 60 60 61 63 64
51 54 57 60 62 65 67 69 70 71 71 70 69 67 66 65 64 63 63 64 65 65 64 64 66 68 69 69 68 67 63 59 55 52 51 49 49 49 49 50 51 52 55
56 58 61 63 65 67 69 70 70 69 68 66 65 65 64 62 62 63 63 64 65 66 66 65 64 64 63 61 58 53 48 44 42 41 41 40 40 40 41 41 42 43 45
58 60 62 64 66 67 68 68 67 65 64 63 62 61 61 61 61 62 63 64 65 65 64 62 58 55 50 46 42 38 35 34 32 32 31 32 32 33 33 34 34 35 36
59 61 63 64 65 65 64 64 63 62 61 60 60 60 60 61 61 62 62 62 62 59 56 51 45 40 36 33 30 27 26 26 26 25 24 25 26 27 27 27 27 28 30
59 60 61 61 61 60 60 60 59 58 58 58 58 59 60 60 61 60 59 57 53 48 42 36 32 29 27 25 24 22 21 22 22 21 20 21 21 21 22 22 22 23 25
56 57 57 57 57 57 56 56 55 56 56 56 57 58 58 57 56 54 51 47 42 36 29 25 23 22 21 21 20 19 19 18 19 18 18 18 18 18 18 17 18 18 20
53 53 53 53 52 53 54 54 54 54 54 54 54 53 52 51 48 43 38 34 30 25 21 19 18 19 19 19 19 18 18 18 18 18 18 17 17 15 15 13 13 14 15
49 49 49 50 51 51 51 51 52 52 52 51 48 46 44 40 36 31 27 24 21 19 18 17 18 18 19 19 19 19 19 20 21 20 19 18 17 16 14 13 12 11 12
47 47 48 48 49 49 49 49 49 47 46 43 41 38 33 28 25 21 18 16 15 15 16 17 18 19 20 20 21 21 21 21 20 21 20 19 18 17 16 14 13 12 11
46 46 46 47 47 47 47 45 43 40 38 36 33 29 24 19 15 13 12 12 13 15 17 18 20 20 20 20 20 19 18 17 16 16 16 15 15 14 14 14 13 12 12

GEFSMA_500_meanwind_030.txt.gz
Wind_Speed
15 15 15 16 16 16 15 15 15 15 15 15 16 16 17 17 19 20 20 22 23 24 25 26 28 30 31 33 34 35 36 37 37 38 38 38 38 38 38 38 38 37 37
19 19 19 19 19 20 19 20 20 20 20 20 20 21 21 21 22 23 23 25 26 27 28 30 31 33 34 36 37 38 40 40 41 42 42 43 43 43 43 43 43 43 43
23 24 24 24 24 25 25 25 25 25 25 25 25 25 25 25 24 25 27 28 29 30 32 33 34 35 36 38 40 41 43 44 44 45 45 46 46 46 46 46 46 46 46
29 30 30 30 31 31 30 30 29 29 29 29 28 28 27 26 26 27 28 30 31 33 33 35 36 37 38 40 41 43 44 45 46 47 48 48 49 49 49 48 48 48 48
34 35 36 36 36 35 35 34 32 31 31 31 30 28 27 27 26 28 30 31 33 35 36 37 38 39 40 42 43 45 46 47 48 49 50 51 52 52 53 53 52 51 51
38 39 39 39 39 38 37 35 33 32 32 31 29 27 28 27 28 30 31 32 34 36 39 40 42 42 44 45 47 48 50 51 52 53 54 55 56 57 57 57 57 56 56
38 38 38 39 39 38 37 36 33 31 30 29 28 28 28 29 30 31 33 35 37 39 41 43 46 47 49 50 52 53 55 56 57 58 59 59 60 61 61 61 61 61 60
36 36 35 33 33 34 34 32 30 28 27 26 27 29 30 31 31 34 36 39 41 43 46 48 50 53 54 56 58 58 59 60 61 62 63 64 64 64 64 64 63 63 62
33 31 30 30 29 28 28 27 26 25 26 27 28 31 33 35 37 38 41 44 46 49 51 54 56 58 59 61 62 63 63 64 65 65 66 67 66 66 65 65 65 65 64
29 29 28 28 27 27 26 25 23 25 27 29 32 35 38 41 44 47 48 49 51 54 57 59 61 62 63 64 65 66 66 66 67 67 68 68 68 68 67 67 67 67 67
29 26 26 26 26 26 26 26 27 29 32 34 36 39 42 45 48 51 55 57 58 60 62 63 65 66 66 67 67 68 67 67 68 68 69 69 69 69 69 69 69 69 69
29 26 26 27 27 28 29 29 31 35 37 39 42 45 47 50 52 55 58 60 62 63 65 66 67 67 68 69 69 68 68 68 68 68 68 69 69 69 69 69 69 69 69
32 31 31 30 30 32 33 34 36 40 43 45 48 50 53 55 57 59 61 63 64 64 66 66 67 67 68 69 69 68 67 67 67 67 67 67 67 67 67 67 68 68 69
35 33 33 35 35 36 38 40 42 45 47 50 53 55 57 59 61 62 64 64 65 64 65 66 66 66 66 67 68 67 67 66 66 66 66 67 67 68 68 68 68 68 68
37 36 37 38 39 41 43 44 46 49 52 55 57 59 60 62 63 64 64 64 65 64 63 64 65 65 66 67 68 68 67 67 66 66 66 65 65 65 65 65 65 65 65
39 39 40 42 43 45 46 49 52 54 56 58 59 61 62 63 63 63 63 63 64 63 62 63 65 66 67 67 67 67 66 64 63 61 60 59 59 58 57 57 57 58 59
43 43 44 45 47 49 51 53 55 57 58 59 61 61 62 61 61 61 61 62 62 63 63 63 65 65 65 64 63 61 59 56 54 52 50 49 47 47 47 47 47 48 49
47 47 48 49 51 53 54 56 57 58 59 60 60 60 60 59 59 59 60 61 62 63 63 62 61 60 59 57 54 51 48 45 42 40 38 37 36 35 36 36 36 37 39
51 51 52 53 53 54 56 57 58 58 59 59 58 58 57 57 57 58 59 61 61 61 60 58 54 52 49 46 43 40 37 34 32 31 29 29 29 29 29 29 30 31 32
53 53 53 54 55 55 56 57 57 57 57 56 55 55 55 55 56 57 58 59 58 56 52 49 45 42 39 37 34 31 29 28 28 27 26 25 26 26 26 26 26 27 28
54 55 55 55 55 55 56 56 55 55 54 53 53 53 54 55 56 56 55 54 51 47 43 39 35 33 32 30 29 28 27 26 26 26 26 25 25 25 25 25 25 25 26
55 54 54 54 54 54 54 54 53 52 52 51 51 52 53 54 53 52 50 46 42 38 33 30 29 28 28 28 28 28 28 27 26 26 26 26 26 25 25 24 24 24 24
53 53 53 53 53 52 52 51 51 50 50 50 51 51 51 50 48 45 41 38 34 30 28 27 27 27 27 27 27 27 27 26 26 25 25 25 25 25 25 24 24 23 22
52 52 52 52 52 51 50 50 49 49 49 49 49 48 46 43 39 35 33 30 28 27 28 28 28 28 28 27 26 25 24 23 23 22 22 22 22 22 22 22 22 21 21
51 51 51 50 50 49 48 48 48 48 47 46 45 42 38 34 30 27 25 24 25 26 27 28 28 27 26 24 22 21 20 19 19 19 18 18 18 18 18 18 18 18 19
49 49 49 48 48 47 47 47 46 45 43 41 38 35 31 26 23 20 20 21 23 25 26 26 25 23 21 20 19 18 16 16 16 16 17 17 16 16 15 15 14 15 15